Orange, MA

9:10 AM EDT on June 25, 2017 (GMT -0400)
Orange Municipal

Weather History for KORE - October, 2011

Change the Weather History Date:

Tuesday, October 25, 2011

  Actual Average Record
Temperature  
Mean Temperature 45 °F -  
Max Temperature 55 °F 53 °F 73 °F (2001)
Min Temperature 34 °F 31 °F 21 °F (2002)
Degree Days  
Heating Degree Days 20    
Moisture  
Dew Point 36 °F    
Average Humidity 84    
Maximum Humidity 100    
Minimum Humidity 40    
Precipitation  
Precipitation 0.00 in - - ()
Sea Level Pressure  
Sea Level Pressure 29.93 in    
Wind  
Wind Speed 3 mph (West)    
Max Wind Speed 21 mph    
Max Gust Speed 29 mph    
Visibility 5 miles    
Events Fog    
Averages and records for this station are not official NWS values.
T = Trace of Precipitation, MM = Missing Value Source: NWS Daily Summary

Daily Weather History Graph

Daily Weather History Graph

Search for Another Location

Airport or City:

Trip Planner

Search our weather history database for the weather conditions in past years. The results will help you decide how hot, cold, wet, or windy it might be!

Date:

Astronomy

Oct. 25, 2011 Rise Set
Actual Time 7:13 AM EDT 5:52 PM EDT
Civil Twilight 6:44 AM EDT 6:20 PM EDT
Nautical Twilight 6:11 AM EDT 6:53 PM EDT
Astronomical Twilight 5:39 AM EDT 7:26 PM EDT
Moon 5:41 AM EDT 4:51 PM EDT
Length of Visible Light 11h 35m
Length of Day
10h 38m
Waning Crescent, 2% of the Moon is Illuminated
Oct 25
Waning Crescent
Oct 26
New
Nov 2
First Quarter
Nov 10
Full
Nov 18
Last Quarter

Hourly Weather History & Observations

Time (EDT) Temp. Windchill Dew Point Humidity Pressure Visibility Wind Dir Wind Speed Gust Speed Precip Events Conditions
12:52 AM 48.0 °F - 46.9 °F 96% 29.93 in 6.0 mi Calm Calm - 0.00 in   Mostly Cloudy
1:52 AM 45.0 °F 42.6 °F 45.0 °F 100% 29.92 in 6.0 mi SW 4.6 mph - N/A   Clear
2:15 AM 44.6 °F - 42.8 °F 93% 29.92 in 1.2 mi Calm Calm - N/A   Partly Cloudy
2:22 AM 42.8 °F - 42.8 °F 100% 29.92 in 0.2 mi Calm Calm - N/A Fog Fog
2:52 AM 41.0 °F - 41.0 °F 100% 29.92 in 0.2 mi Calm Calm - N/A Fog Fog
3:33 AM 39.2 °F - 39.2 °F 100% 29.91 in 1.2 mi Calm Calm - N/A   Partly Cloudy
3:44 AM 39.2 °F 37.0 °F 39.2 °F 100% 29.91 in 1.0 mi South 3.5 mph - N/A   Mist
3:52 AM 39.0 °F 36.8 °F 39.0 °F 100% 29.92 in 0.8 mi SSW 3.5 mph - N/A   Clear
4:01 AM 39.2 °F 35.9 °F 39.2 °F 100% 29.91 in 0.5 mi SSW 4.6 mph - N/A Fog Fog
4:45 AM 37.4 °F - 37.4 °F 100% 29.92 in 1.2 mi Calm Calm - N/A   Scattered Clouds
4:48 AM 37.4 °F - 37.4 °F 100% 29.92 in 2.5 mi Calm Calm - N/A   Scattered Clouds
4:52 AM 37.0 °F - 37.0 °F 100% 29.93 in 3.0 mi Calm Calm - N/A   Scattered Clouds
4:55 AM 37.4 °F 34.9 °F 37.4 °F 100% 29.92 in 1.8 mi NE 3.5 mph - N/A   Scattered Clouds
4:59 AM 37.4 °F - 37.4 °F 100% 29.92 in 1.0 mi Calm Calm - N/A   Mist
5:07 AM 37.4 °F - 37.4 °F 100% 29.92 in 0.5 mi Calm Calm - N/A Fog Fog
5:46 AM 37.4 °F 34.9 °F 37.4 °F 100% 29.92 in 1.2 mi SSW 3.5 mph - N/A   Partly Cloudy
5:52 AM 37.0 °F - 37.0 °F 100% 29.93 in 1.2 mi Calm Calm - N/A   Partly Cloudy
5:59 AM 37.4 °F - 35.6 °F 93% 29.92 in 0.8 mi Calm Calm - N/A   Mist
6:38 AM 35.6 °F - 35.6 °F 100% 29.93 in 1.2 mi Calm Calm - N/A   Mostly Cloudy
6:48 AM 35.6 °F - 35.6 °F 100% 29.93 in 1.0 mi Calm Calm - N/A   Mist
6:52 AM 36.0 °F 33.3 °F 36.0 °F 100% 29.94 in 2.0 mi SW 3.5 mph - N/A   Mostly Cloudy
6:56 AM 35.6 °F - 35.6 °F 100% 29.92 in 5.0 mi Calm Calm - N/A   Scattered Clouds
7:03 AM 35.6 °F - 35.6 °F 100% 29.92 in 1.8 mi Calm Calm - N/A   Scattered Clouds
7:11 AM 35.6 °F - 33.8 °F 93% 29.92 in 1.0 mi Calm Calm - N/A   Mist
7:17 AM 35.6 °F - 33.8 °F 93% 29.92 in 0.8 mi Calm Calm - N/A   Clear
7:24 AM 35.6 °F - 33.8 °F 93% 29.92 in 0.8 mi Calm Calm - N/A   Mist
7:29 AM 35.6 °F - 33.8 °F 93% 29.93 in 1.5 mi Calm Calm - N/A   Partly Cloudy
7:31 AM 35.6 °F - 33.8 °F 93% 29.93 in 3.0 mi Calm Calm - N/A   Partly Cloudy
7:52 AM 36.0 °F - 35.1 °F 97% 29.95 in 4.0 mi Calm Calm - N/A   Clear
8:09 AM 37.4 °F 34.9 °F 35.6 °F 93% 29.94 in 1.2 mi ENE 3.5 mph - N/A   Partly Cloudy
8:16 AM 37.4 °F - 37.4 °F 100% 29.94 in 0.2 mi Calm Calm - N/A Fog Fog
8:24 AM 37.4 °F - 37.4 °F 100% 29.94 in 1.5 mi Calm Calm - N/A   Partly Cloudy
8:28 AM 39.2 °F - 39.2 °F 100% 29.94 in 3.0 mi Calm Calm - N/A   Partly Cloudy
8:52 AM 42.1 °F - 41.0 °F 96% 29.96 in 10.0 mi Calm Calm - N/A   Clear
9:52 AM 50.0 °F - 39.0 °F 66% 29.96 in 10.0 mi WNW 10.4 mph - N/A   Clear
10:44 AM 51.8 °F - 37.4 °F 58% 29.94 in 10.0 mi WNW 13.8 mph 21.9 mph N/A   Partly Cloudy
10:52 AM 52.0 °F - 37.0 °F 57% 29.96 in 10.0 mi WNW 12.7 mph - N/A   Clear
11:01 AM 53.6 °F - 35.6 °F 51% 29.95 in 10.0 mi West 15.0 mph 24.2 mph N/A   Partly Cloudy
11:52 AM 53.1 °F - 35.1 °F 50% 29.95 in 10.0 mi West 12.7 mph 24.2 mph N/A   Mostly Cloudy
12:52 PM 53.1 °F - 35.1 °F 50% 29.93 in 10.0 mi West 11.5 mph - N/A   Overcast
1:22 PM 53.6 °F - 33.8 °F 47% 29.91 in 10.0 mi WNW 20.7 mph 28.8 mph N/A   Mostly Cloudy
1:52 PM 55.9 °F - 34.0 °F 44% 29.91 in 10.0 mi WNW 16.1 mph 26.5 mph N/A   Scattered Clouds
2:52 PM 55.9 °F - 33.1 °F 42% 29.91 in 10.0 mi NW 15.0 mph 25.3 mph N/A   Clear
3:05 PM 55.4 °F - 32.0 °F 41% 29.90 in 10.0 mi WNW 16.1 mph 25.3 mph N/A   Partly Cloudy
3:52 PM 55.9 °F - 32.0 °F 40% 29.92 in 10.0 mi NW 16.1 mph 25.3 mph N/A   Partly Cloudy
4:52 PM 54.0 °F - 30.9 °F 41% 29.94 in 10.0 mi WNW 6.9 mph 16.1 mph N/A   Partly Cloudy
5:52 PM 51.1 °F - 32.0 °F 48% 29.95 in 10.0 mi WNW 10.4 mph - N/A   Clear
6:52 PM 48.9 °F - 34.0 °F 56% 29.98 in 10.0 mi West 6.9 mph - N/A   Clear
7:52 PM 48.0 °F - 34.0 °F 58% 29.98 in 10.0 mi Variable 3.5 mph - N/A   Clear
9:52 PM 37.9 °F - 34.0 °F 86% 29.99 in 10.0 mi Calm Calm - N/A   Clear
10:52 PM 36.0 °F - 33.1 °F 89% 30.00 in 10.0 mi Calm Calm - N/A   Clear
11:52 PM 34.0 °F - 32.0 °F 92% 30.01 in 10.0 mi Calm Calm - N/A   Clear